Location: Buchdorf
(48.7842°N, 10.8275°E)
Time: 08:02:21
(UTC+00:00)

Cosmos 1908 - Visible Passes

Search period start: 11 August 2020 00:00
Search period end: 21 August 2020 00:00
Orbit: 512 x 529 km, 82.5° (Epoch: 10 August)

Date Brightness Start Highest point End Pass type
(mag) Time Alt. Az. Time Alt. Az. Time Alt. Az.
11 Aug 3.2 02:47:40 11° SSW 02:51:25 80° WNW 02:55:22 10° N visible
12 Aug 3.2 02:34:51 15° S 02:38:04 89° E 02:42:01 10° N visible
13 Aug 3.3 02:22:01 19° S 02:24:43 77° E 02:28:40 10° NNE visible
14 Aug 3.5 02:09:08 24° S 02:11:23 67° E 02:15:17 10° NNE visible
15 Aug 3.7 01:56:15 29° SSE 01:58:03 57° E 02:01:55 10° NNE visible
15 Aug 5.3 03:32:06 10° W 03:34:16 14° WNW 03:36:27 10° NNW visible
16 Aug 3.9 01:43:20 33° SSE 01:44:43 50° E 01:48:31 10° NNE visible
16 Aug 5.1 03:18:28 10° WSW 03:20:51 16° WNW 03:23:21 10° NNW visible
17 Aug 4.2 01:30:23 35° SE 01:31:23 43° E 01:35:07 10° NNE visible
17 Aug 5.0 03:05:32 13° WSW 03:07:27 18° WNW 03:10:12 10° NNW visible
18 Aug 4.3 01:17:26 35° ESE 01:18:04 37° E 01:21:42 10° NNE visible
18 Aug 4.9 02:52:34 17° W 02:54:03 20° WNW 02:57:00 10° NNW visible
19 Aug 4.5 01:04:27 32° E 01:04:45 33° E 01:08:16 10° NNE visible
19 Aug 4.7 02:39:35 20° W 02:40:39 23° WNW 02:43:48 10° NNW visible
20 Aug 4.8 00:51:27 29° E 00:51:27 29° E 00:54:49 10° NNE visible
20 Aug 4.5 02:26:35 24° W 02:27:15 25° WNW 02:30:34 10° NNW visible
